#timestamp,LO_Frequency,Hit,StdDev 
1517767215.5,286047000.4,N
1517767235.3,286047000.6,N
1517767285.2,286047000.2,E
1517767295.1,286047002.0,N
1517767315.8,286046999.9,P
1517767335.7,286046998.4,N
1517767355.5,286047000.4,N
1517767375.4,286047000.6,N
1517767395.2,286046998.5,N
1517767415.0,286047001.1,N
1517767415.9,286047001.1,N
1517767435.8,286047002.0,N
1517767455.6,286047000.1,N
1517767475.5,286047001.3,N
1517767495.3,286046999.7,N
1517767515.1,286047001.9,N
1517767535.9,286047001.7,N
1517767555.7,286047002.5,N
1517767575.5,286047001.3,N
1517767595.4,286047000.1,N
1517767615.2,286047002.5,N
1517767635.1,286047001.5,N
1517767636.0,286047001.5,N
1517767655.8,286047002.5,N
1517767675.7,286046998.2,N
1517767695.5,286046998.7,N
1517767715.3,286047001.1,N
1517767735.2,286047000.4,N
1517767755.9,286046998.7,N
1517767775.7,286046998.2,N
1517767795.6,286046998.6,N
1517767815.4,286046998.5,N
1517767835.3,286046996.9,N
1517767855.1,286046998.7,N
1517767875.8,286047001.2,N
1517767895.7,286047000.5,N
1517767915.5,286046998.8,N
1517767935.4,286047001.2,N
1517767955.2,286046999.2,N
1517767975.0,286047000.8,N
1517767976.0,286047000.8,N
1517767995.8,286047000.9,N
1517768015.6,286047000.6,N
1517768035.5,286047000.4,N
1517768055.3,286047000.3,N
1517768075.1,286046998.5,N
1517768095.9,286046998.1,N
1517768115.7,286046998.2,N
1517768135.6,286047000.6,N
1517768155.4,286047002.7,N
1517768175.2,286046999.7,N
1517768195.1,286047001.5,N
1517768196.0,286047001.5,N
1517768215.8,286047001.3,N
1517768235.7,286047001.3,N
1517768255.5,286047001.6,N
1517768275.3,286047002.6,N
1517768295.2,286047002.7,N
1517768315.9,286047002.7,N
1517768335.7,286047001.0,N
1517768355.6,286047000.5,N
1517768375.4,286046998.5,N
1517768395.3,286047001.1,N
1517768415.1,286046998.5,N
1517768416.0,286046998.5,N
1517768435.8,286047000.2,N
1517768455.7,286047000.0,N
1517768475.5,286047000.9,N
1517768495.3,286046999.9,N
1517768515.2,286047002.5,N
1517768535.0,286047001.7,N
1517768535.9,286047001.7,N
1517768555.8,286047004.3,Y
1517768575.6,286046999.7,P
1517768595.4,286047001.2,N
1517768615.3,286047000.4,N
1517768635.1,286047000.8,N
1517768655.9,286047000.5,N
1517768675.7,286047001.1,N
1517768695.5,286047000.1,N
1517768715.4,286047000.8,N
1517768735.2,286047000.0,N
1517768755.0,286047000.6,N
1517768755.9,286047000.6,N
1517768775.8,286047000.2,N
1517768795.6,286047000.5,N
1517768815.5,286047000.3,N
1517768835.3,286047002.6,Y
1517768855.1,286047002.0,P
1517768875.9,286047001.5,N
1517768895.7,286047002.3,P
1517768915.6,286047002.8,Y
1517768935.4,286046998.6,P
1517768955.2,286047001.2,N
1517768975.1,286047001.0,N
1517768976.0,286047001.0,N
1517768995.8,286046998.7,N
1517769015.7,286047000.1,N
1517769035.5,286046998.7,N
1517769055.3,286046998.8,N
1517769075.2,286046998.6,N
1517769095.0,286046998.6,N
1517769095.9,286046998.6,N
1517769115.8,286046998.2,N
1517769135.6,286046998.8,N
1517769155.4,286046999.0,N
1517769175.3,286046999.1,N
1517769195.1,286047001.2,N
1517769215.8,286047000.7,N
1517769235.7,286047000.7,N
1517769255.5,286047000.9,N
1517769275.4,286047000.9,N
1517769295.2,286046999.6,N
1517769315.0,286046999.1,N
1517769315.9,286046999.1,N
1517769335.8,286046996.9,N
1517769355.6,286046999.6,N
1517769375.4,286046996.9,N
1517769395.3,286046996.7,N
1517769415.1,286046997.1,N
1517769435.9,286046998.2,N
1517769455.7,286046998.2,N
1517769475.5,286047001.1,N
1517769495.4,286046998.6,N
1517769515.2,286046998.1,N
1517769535.1,286046999.3,N
1517769536.0,286046999.3,N
1517769555.8,286047000.7,N
1517769575.6,286046998.1,N
1517769595.5,286047001.1,N
1517769615.3,286047000.8,N
1517769635.2,286047001.2,N
1517769655.9,286046999.4,N
1517769675.7,286046996.6,N
1517769695.6,286046996.9,N
1517769715.4,286047001.0,N
1517769735.2,286046999.7,N
1517769755.1,286046998.7,N
1517769756.0,286046998.7,N
1517769775.8,286046998.8,N
1517769795.7,286046999.3,N
1517769815.5,286046998.5,N
1517769835.3,286047001.0,N
1517769855.2,286047002.7,N
1517769875.0,286047002.6,N
1517769875.9,286047002.6,N
1517769895.7,286047000.9,N
1517769915.6,286046998.2,N
1517769935.4,286046998.4,N
1517769955.3,286046999.5,N
1517769975.1,286046998.4,N
1517769976.0,286046998.4,N
1517769995.8,286047000.0,N
1517770015.7,286046998.5,N
1517770035.5,286047000.3,N
1517770055.3,286047000.4,N
1517770075.2,286047000.3,N
1517770095.0,286046999.0,N
1517770095.9,286046999.0,N
1517770115.8,286046998.1,N
1517770135.6,286046999.5,N
1517770155.4,286046996.7,N
1517770175.3,286046999.3,N
1517770195.1,286047000.6,N
1517770215.9,286047001.1,N
1517770235.7,286047001.0,N
1517770255.5,286047000.4,N
1517770275.4,286047000.6,N
1517770295.2,286047000.1,N
1517770315.0,286047001.0,N
1517770315.9,286047001.0,N
1517770335.8,286046999.3,N
1517770355.6,286046998.4,N
1517770375.5,286046998.7,N
1517770395.3,286046996.6,N
1517770415.1,286046997.1,N
1517770435.9,286046997.9,N
1517770455.7,286046997.9,N
1517770475.5,286046998.4,N
1517770495.4,286046999.1,N
1517770515.2,286046997.6,N
1517770535.1,286046995.6,Y
1517770536.0,286046995.6,P
1517770555.8,286046995.6,N
1517770575.6,286046995.6,N
1517770595.5,286046996.4,N
1517770615.3,286046996.3,N
1517770635.2,286046992.4,Y
1517770655.9,286046995.4,P
1517770675.7,286046993.6,P
1517770695.6,286046996.0,P
1517770715.4,286046995.1,Y
1517770735.2,286047000.4,P
1517770755.1,286047000.5,N
1517770756.0,286047000.5,N
1517770775.8,286047002.2,N
1517770795.7,286047002.1,N
